Theta_e
299 298 296 296 296 296 295 296 296 296 297 297 297 297 297 296 296 296 297 298 298 299 299 299 300 300 299 301 302 302 302 302 302 301 301 301 301 301 301 300 300 300 300 300 300 299 298 297 296 294 294 288
299 298 297 296 296 295 295 295 295 295 296 295 295 295 295 294 294 294 295 295 296 297 297 297 298 298 299 300 301 301 301 301 302 300 300 300 300 300 299 299 299 298 298 299 299 298 297 296 294 293 292 286
297 299 298 296 296 296 295 295 295 294 295 295 294 294 293 293 293 292 293 293 294 294 296 295 294 295 299 300 300 300 300 300 300 299 300 300 299 299 298 298 298 296 295 296 296 297 296 295 293 291 288 285
292 299 299 296 296 296 296 295 295 295 294 294 292 292 292 292 290 290 290 292 290 292 294 292 292 295 298 299 299 299 299 299 299 299 299 299 298 298 297 297 296 294 294 294 294 294 295 293 292 284 283 283
291 295 299 296 296 297 297 295 295 295 295 294 291 291 291 290 287 286 286 285 286 291 289 291 292 294 296 297 298 298 298 298 297 298 298 298 297 297 296 295 293 291 291 292 292 292 292 292 284 283 282 283
291 293 297 289 289 292 295 296 296 292 290 292 288 291 288 286 289 286 284 285 290 288 288 290 292 293 294 297 297 297 296 295 296 296 297 297 296 295 295 294 284 286 290 290 290 291 291 285 281 282 282 282
291 290 291 289 288 290 296 294 292 289 291 287 285 287 284 289 286 285 287 286 289 290 291 289 291 291 293 294 295 294 294 293 294 294 295 295 294 294 293 286 281 281 280 280 290 289 285 280 280 281 281 281
289 289 288 288 288 287 288 288 290 287 287 286 285 286 285 285 285 286 284 290 289 289 287 286 290 290 290 291 291 292 292 291 291 292 293 291 292 292 288 281 280 281 279 280 279 280 280 279 280 280 281 281
287 288 287 287 286 286 286 286 286 286 286 286 285 285 286 284 285 285 284 283 283 283 283 283 283 283 283 284 283 290 283 284 284 287 281 282 288 281 283 283 281 280 280 281 282 278 279 279 280 280 282 279
289 291 287 286 286 285 285 286 285 285 285 285 285 284 285 286 284 283 284 282 282 282 282 282 282 282 282 282 283 286 283 282 282 281 282 281 282 282 281 280 280 280 284 281 279 277 278 279 278 279 280 279
290 289 287 286 286 286 284 284 285 283 284 285 284 284 286 285 283 282 281 281 281 281 282 282 281 281 282 282 281 284 283 282 282 281 281 280 281 280 280 280 279 280 279 279 279 279 279 278 278 279 278 278
288 287 287 287 292 290 288 287 284 283 284 285 284 284 285 288 282 281 281 282 280 281 280 282 282 281 281 281 281 283 283 282 281 280 280 280 280 280 280 279 279 279 279 278 278 279 279 278 278 278 278 278
287 287 287 287 287 287 291 287 285 284 285 284 284 285 285 286 282 281 281 280 280 280 280 280 281 280 280 281 281 282 281 281 281 280 279 280 279 279 279 278 279 279 280 279 279 279 279 279 278 278 278 277
287 287 287 286 286 286 291 286 285 284 283 283 283 282 284 284 283 281 280 280 280 279 280 280 280 282 281 280 280 281 281 281 280 279 279 279 279 278 278 278 279 281 279 279 279 278 279 278 279 278 278 277
288 288 287 287 286 285 286 286 286 285 284 283 282 283 283 283 285 282 281 280 280 279 279 279 280 280 280 279 279 281 280 280 280 280 279 278 278 278 278 278 279 279 279 278 278 279 279 279 279 278 278 278
288 287 287 287 286 285 285 286 284 283 283 285 282 283 282 282 282 286 280 280 280 280 279 279 279 279 280 279 279 280 280 280 280 280 279 279 279 279 279 278 278 279 278 278 278 278 278 278 278 277 278 278
288 287 287 287 286 286 287 285 285 283 283 283 283 283 282 282 282 285 282 280 281 284 279 279 279 279 281 280 280 280 281 280 280 279 278 278 279 279 278 278 278 279 279 278 278 278 278 278 278 278 278 278
286 287 287 287 285 287 285 284 284 284 283 283 283 283 282 282 282 283 281 280 280 280 279 279 279 278 279 279 279 280 280 279 279 278 278 278 278 280 280 277 277 277 277 277 277 277 278 278 278 278 277 277
287 286 287 286 286 285 285 284 283 282 283 281 282 282 281 282 282 283 281 280 280 279 278 278 278 278 278 279 280 278 279 278 278 277 277 277 277 277 276 276 278 278 277 276 276 277 278 277 277 277 277 277
287 287 286 285 288 285 284 284 283 282 282 282 281 282 281 281 282 283 281 280 280 278 278 278 277 278 278 279 279 278 278 279 278 277 278 278 277 275 276 277 276 277 276 276 276 277 277 276 278 277 277 277
286 285 284 284 285 285 283 283 282 281 282 282 282 280 280 280 281 282 280 280 280 279 278 278 277 278 278 279 278 277 276 276 279 277 278 277 278 276 275 275 275 275 276 275 276 276 276 276 277 277 277 277
286 286 285 284 283 286 284 283 282 282 281 282 280 280 280 280 281 282 280 279 279 278 279 278 277 278 278 278 277 277 276 276 277 277 276 276 276 276 275 274 274 275 275 276 276 276 276 276 276 277 277 277
286 285 284 282 282 282 282 281 281 281 281 281 281 280 280 280 280 282 280 279 280 278 278 279 278 277 277 278 276 276 276 276 277 277 276 275 275 276 276 275 275 275 275 276 276 276 276 276 276 277 277 279
283 283 283 283 282 282 282 281 282 281 281 281 280 281 281 280 280 280 281 279 279 278 279 277 277 277 277 276 276 276 275 275 275 275 275 275 275 275 276 277 276 276 275 275 274 276 276 276 276 276 278 277
283 282 282 280 281 281 281 282 281 281 281 280 280 281 280 280 280 279 279 280 278 278 279 278 277 277 276 276 276 276 276 276 275 275 275 275 276 276 275 274 275 274 275 273 273 274 274 275 276 278 278 277
283 282 282 282 282 281 280 280 279 280 280 280 281 281 280 280 280 279 279 280 278 279 277 277 277 276 276 276 275 276 276 276 278 277 276 276 274 275 275 274 275 275 274 272 271 271 272 273 275 276 276 276
283 282 282 282 281 280 280 280 281 280 281 280 280 280 280 280 279 279 278 278 280 278 277 277 277 277 276 275 276 276 275 275 275 275 275 275 274 274 275 275 276 274 275 271 273 273 272 270 271 275 275 274
284 283 284 282 282 282 280 281 283 281 280 278 277 278 279 279 279 278 278 278 278 279 277 277 277 277 276 276 276 275 275 274 274 275 275 274 275 275 272 273 274 277 275 273 273 267 270 269 271 269 271 272
283 283 281 280 280 279 280 279 278 277 278 279 280 280 277 278 279 278 278 278 278 278 278 277 277 276 276 275 275 275 275 275 275 275 275 275 275 274 273 272 273 274 276 274 275 272 270 265 266 267 270 272
282 282 282 280 279 279 279 278 277 278 278 278 278 278 279 278 278 278 278 278 277 277 278 277 277 276 276 275 276 276 275 275 276 276 276 276 275 274 275 274 273 272 276 276 276 275 275 273 269 267 269 271
283 281 280 279 280 279 279 278 278 278 278 278 278 278 277 278 277 277 278 278 277 277 278 278 277 276 276 276 276 277 275 275 275 275 276 277 276 275 276 275 272 273 273 275 275 276 275 275 275 273 271 267
Wind_Speed
8 7 5 3 2 1 1 1 1 2 3 3 4 4 5 6 8 9 9 8 8 8 10 11 11 11 12 12 11 11 11 11 11 10 11 11 11 12 13 15 15 15 15 14 15 16 15 16 14 15 12 5
10 9 8 5 5 3 3 2 1 1 1 2 2 3 4 5 7 8 8 8 8 10 11 11 11 12 13 12 11 11 11 11 11 11 11 10 10 11 12 13 14 14 14 14 15 15 15 15 15 13 13 5
7 12 10 7 7 6 5 4 3 2 2 1 2 2 3 4 7 6 7 7 9 11 10 9 11 13 13 12 11 11 10 10 11 11 11 10 10 10 11 11 11 12 14 14 15 15 14 14 14 14 8 5
7 9 13 9 8 9 8 7 6 5 4 3 2 2 2 3 3 5 3 7 7 9 8 9 10 12 12 12 11 10 10 10 10 11 11 10 10 10 9 11 9 9 12 13 14 15 15 15 14 5 4 4
7 9 13 9 8 11 11 9 9 7 6 4 3 2 2 1 2 1 0 3 3 7 3 9 10 11 12 12 11 10 10 10 10 10 12 10 9 10 10 10 8 9 11 12 13 14 13 14 7 5 3 4
6 6 9 5 4 5 7 8 8 5 3 6 3 5 1 1 2 0 1 1 5 3 4 4 9 10 12 12 12 11 10 9 8 11 12 10 9 11 11 9 3 3 6 9 12 13 13 6 4 5 6 4
6 7 5 5 5 5 8 7 5 4 5 4 4 3 3 2 2 1 1 2 4 3 6 5 9 10 11 11 12 10 9 8 10 12 11 9 9 11 11 5 3 2 3 2 9 9 5 2 3 4 5 6
6 6 6 6 6 6 6 6 5 6 5 5 4 4 4 3 3 2 2 5 7 6 2 3 6 9 10 11 11 12 6 7 9 11 10 10 11 8 4 3 3 3 3 3 3 4 4 4 5 4 4 4
7 6 6 6 7 7 6 6 6 6 6 5 5 5 5 4 3 3 3 3 3 3 3 3 3 3 3 3 3 7 4 3 3 4 3 3 5 4 3 2 5 4 4 3 4 4 5 5 5 5 4 4
7 7 7 6 7 6 6 6 6 5 6 6 5 4 4 3 3 3 4 3 3 3 3 3 3 3 3 2 3 3 5 5 3 3 2 3 3 4 4 3 4 4 3 4 4 4 4 5 4 5 5 4
6 6 6 6 6 6 6 6 6 6 6 6 4 4 4 5 3 4 4 3 3 3 3 5 4 3 3 3 3 3 4 4 3 3 3 3 4 3 3 3 3 3 4 4 4 5 4 4 5 6 6 6
6 6 5 6 6 6 6 6 7 6 6 5 5 5 5 4 5 5 4 3 3 4 3 4 4 3 3 3 3 4 4 4 5 4 3 3 3 3 3 3 4 4 4 4 3 5 6 5 5 5 5 5
7 6 6 6 6 7 6 7 7 6 5 5 5 5 4 4 5 4 4 4 4 3 4 4 4 4 4 3 4 4 5 4 3 3 3 2 2 2 3 4 4 4 5 4 4 6 7 6 6 5 5 5
6 7 6 6 7 7 6 7 6 5 6 6 6 6 4 5 5 6 6 5 4 4 4 4 4 4 5 5 4 4 5 3 3 3 3 2 1 2 3 4 5 5 5 6 5 5 6 6 6 5 5 5
7 6 7 7 6 6 7 6 6 6 6 6 6 6 4 5 4 5 5 5 4 4 4 4 4 5 4 5 5 4 4 3 3 3 3 2 2 3 4 5 5 5 6 6 5 5 6 6 6 6 6 6
6 7 7 7 6 7 7 5 6 6 6 6 6 4 4 5 5 4 5 5 4 5 4 5 5 5 5 6 5 5 5 5 5 3 3 3 3 3 4 5 5 5 5 6 6 5 5 5 6 6 6 6
7 6 6 7 7 7 6 6 6 6 6 6 5 4 5 5 5 5 6 5 5 4 4 5 5 6 5 5 5 5 5 5 4 4 3 4 3 4 4 4 5 4 5 6 5 5 5 6 5 5 5 6
6 7 6 6 7 6 6 6 6 6 6 6 6 5 5 5 5 5 5 5 5 5 5 5 5 5 6 6 5 5 5 6 4 5 5 5 3 4 4 6 5 5 6 6 6 5 5 5 6 6 6 6
6 5 6 6 6 6 6 6 6 6 6 6 6 5 6 5 5 5 5 5 6 5 5 5 6 6 6 5 4 5 5 6 6 3 4 4 5 4 5 5 5 5 6 6 6 6 5 6 6 6 6 6
5 5 5 5 5 6 4 5 6 6 6 6 5 5 6 5 5 5 5 5 5 6 5 6 6 6 5 5 5 6 5 5 6 4 4 4 3 5 6 5 6 5 6 5 6 6 5 5 5 6 6 7
5 4 4 4 5 5 4 5 6 5 5 4 6 6 6 5 6 5 6 6 6 6 6 6 6 6 5 5 5 5 5 5 5 3 4 4 3 3 6 7 7 5 5 5 6 6 6 6 6 7 7 8
4 5 4 4 3 2 4 4 4 5 4 6 6 6 6 6 6 6 6 7 6 7 7 6 6 6 6 5 5 6 5 6 5 4 4 6 5 5 5 6 6 7 6 5 6 6 7 8 7 8 8 8
4 4 3 2 2 1 2 3 4 4 4 6 5 6 6 6 6 6 6 7 7 7 7 6 6 6 6 5 6 5 6 6 5 5 5 5 6 4 6 6 6 7 6 7 6 7 8 7 8 8 8 8
5 4 5 5 5 4 4 4 3 4 6 4 6 6 6 6 7 6 7 7 7 7 7 7 7 7 5 6 6 6 7 7 6 7 6 7 6 7 7 6 6 6 5 6 7 9 8 8 9 9 9 9
4 4 6 3 3 5 5 5 4 5 5 5 6 7 7 7 7 7 7 7 7 8 7 7 6 6 6 6 6 7 8 7 7 6 6 6 5 7 7 6 4 4 3 6 9 7 8 8 7 9 10 10
4 3 3 4 7 6 6 5 5 6 6 6 6 7 7 7 6 7 7 7 7 7 7 7 7 7 7 6 7 7 7 6 6 6 6 5 6 5 7 8 4 5 1 6 6 6 7 6 6 9 7 8
2 2 3 2 4 4 5 3 4 4 6 4 6 6 7 7 6 7 7 8 7 7 7 8 7 8 7 6 6 6 7 6 7 7 7 7 8 7 5 7 5 5 5 6 4 4 6 7 6 4 1 2
2 3 3 3 3 4 3 5 5 4 5 4 4 6 6 6 6 7 8 7 7 7 7 8 8 7 6 7 6 7 8 7 8 8 7 7 8 7 9 7 8 6 7 7 5 4 6 4 2 7 2 2
3 3 4 4 5 4 4 3 4 4 6 6 6 5 4 8 7 8 8 8 8 8 9 8 8 7 8 7 7 7 8 9 9 9 8 9 9 9 9 10 7 6 7 8 7 7 2 2 1 5 4 4
4 4 4 5 5 7 5 6 6 7 6 6 6 7 5 5 6 8 8 8 8 9 8 9 9 8 8 8 7 8 8 8 7 9 10 10 9 10 11 10 8 8 7 9 10 11 10 5 4 1 3 4
4 4 4 5 6 6 7 8 7 6 7 7 7 6 6 7 6 7 9 9 9 9 10 9 8 9 9 9 8 8 8 8 10 10 10 8 9 10 8 9 10 12 6 6 8 8 9 10 7 3 3 5
Wind_Direction
206 199 206 221 205 192 289 354 11 22 22 24 18 11 6 357 350 346 343 340 341 338 338 340 338 336 336 333 334 339 341 341 341 344 347 346 348 351 350 349 349 350 351 353 356 358 1 3 7 4 14 354
208 207 209 209 206 210 217 251 257 344 4 7 1 355 2 357 351 349 349 347 347 343 336 337 338 336 327 327 332 334 338 339 339 341 341 341 342 346 347 345 347 350 348 347 350 353 357 2 7 5 7 342
214 211 211 213 210 216 224 220 229 270 274 289 295 337 353 350 356 349 345 347 348 334 331 339 336 326 322 323 321 325 329 331 336 334 335 333 334 337 338 339 341 346 345 342 345 346 350 355 2 2 1 342
207 213 207 211 217 219 224 226 224 233 257 239 261 294 327 345 356 330 336 341 348 323 333 332 321 317 318 316 316 316 317 323 327 327 325 329 327 325 329 334 335 339 337 339 341 339 341 344 355 2 349 334
197 201 205 214 224 222 223 226 228 230 241 250 246 234 254 342 318 297 328 354 314 318 318 313 313 312 316 319 318 313 315 321 322 317 323 323 318 324 327 330 347 329 328 329 334 334 333 342 352 333 340 329
182 188 203 204 219 226 222 227 227 225 228 231 205 236 195 199 246 171 325 307 302 285 279 276 309 319 320 319 322 322 321 317 315 323 322 317 318 329 327 331 45 335 311 323 323 326 326 350 323 323 326 327
190 187 195 205 210 220 216 212 219 203 221 219 200 195 189 206 207 205 270 274 263 270 293 311 311 315 314 322 323 323 320 322 322 321 313 318 325 324 332 359 330 291 270 288 314 315 324 291 286 304 317 316
192 195 198 205 211 214 215 208 212 203 215 206 199 193 189 202 206 214 227 263 287 295 303 285 300 307 312 315 322 316 332 329 319 309 326 323 316 331 337 310 298 273 280 282 284 292 287 291 285 289 291 299
194 197 198 207 209 207 207 207 209 204 203 207 201 194 192 195 202 219 237 239 251 277 266 267 274 282 298 298 303 317 339 314 295 311 326 330 317 313 295 283 278 283 291 289 285 282 280 279 276 277 274 276
196 186 199 206 207 204 209 203 208 205 205 207 206 195 196 193 213 228 230 237 256 269 269 266 260 268 274 309 304 310 303 301 286 280 291 297 292 283 284 278 280 281 268 279 283 280 280 275 276 264 263 265
196 204 205 205 206 201 219 210 209 214 211 210 200 191 189 195 215 226 217 241 249 254 264 262 252 253 256 272 296 296 292 287 280 278 284 289 282 283 295 300 299 284 289 285 292 288 277 275 269 265 260 261
202 210 206 208 210 214 213 203 208 211 210 207 195 190 196 199 201 205 222 230 241 254 257 257 257 244 256 267 267 272 275 275 282 279 283 285 286 293 301 312 310 312 297 294 286 295 288 280 273 267 262 256
204 203 206 209 213 219 213 208 210 210 210 210 205 200 200 199 201 206 208 219 233 249 256 261 262 257 254 255 262 263 270 265 264 270 262 266 291 321 321 314 306 297 286 279 285 279 278 272 273 271 267 261
197 209 211 214 216 216 214 216 213 213 217 214 201 212 207 209 196 200 202 213 228 228 255 263 266 266 267 263 259 257 257 252 255 264 272 284 331 326 305 299 287 283 278 277 268 264 259 263 262 261 261 263
208 204 216 220 218 214 217 216 211 215 215 214 209 212 210 209 204 198 202 204 218 230 238 249 260 262 258 265 264 254 260 261 258 251 229 224 257 276 288 279 277 276 272 267 266 258 259 262 264 262 258 263
206 208 215 220 215 218 221 210 209 212 211 216 214 213 212 208 207 195 203 201 218 219 233 243 249 255 256 252 258 267 270 268 264 253 246 247 248 261 268 276 272 258 254 264 263 263 261 261 257 257 259 265
213 211 214 215 216 221 216 213 209 213 215 217 214 213 213 210 200 206 200 209 210 221 223 241 249 253 248 251 257 264 259 257 265 274 282 284 287 290 280 270 267 270 271 269 265 262 266 269 268 261 265 264
212 217 218 216 217 217 212 212 209 218 215 214 214 213 214 209 209 208 208 202 218 220 230 237 244 251 257 255 255 258 264 264 258 262 269 269 279 265 266 271 276 279 277 270 274 277 277 271 267 270 272 264
222 218 217 218 221 220 208 209 210 218 214 215 216 209 219 212 213 213 208 206 209 221 222 235 248 251 252 257 257 260 258 252 254 237 241 253 262 272 271 266 268 266 268 275 276 274 274 275 277 278 269 269
236 231 221 219 225 224 213 212 213 215 215 216 214 213 219 215 216 216 211 209 203 219 222 228 237 246 256 256 258 258 261 252 247 242 249 248 244 273 271 269 267 265 269 271 279 280 276 273 280 278 276 274
279 265 246 227 224 223 208 212 222 221 216 214 215 220 220 216 217 216 211 211 207 208 221 226 233 243 245 248 249 258 261 262 254 243 252 258 247 233 266 269 273 267 267 275 275 280 280 279 280 278 277 273
279 274 266 260 241 223 216 224 224 225 209 218 218 216 224 219 217 216 211 210 208 210 217 220 225 237 239 241 249 257 261 259 258 253 238 258 254 251 255 267 270 276 272 270 277 280 279 279 272 269 269 264
320 324 325 322 317 305 266 255 245 225 224 227 223 224 227 222 220 221 211 211 209 211 219 223 227 233 234 234 239 246 253 258 259 255 253 253 264 255 251 255 261 265 274 278 278 277 275 271 266 265 261 266
345 349 336 321 327 325 289 266 257 247 232 232 229 233 229 227 226 222 217 213 212 214 218 222 228 231 228 232 230 238 247 251 247 248 256 258 260 268 268 259 262 266 278 282 281 279 277 267 267 265 262 265
355 346 332 332 298 269 271 273 269 262 254 241 240 238 233 231 229 224 222 218 209 216 220 224 227 227 232 225 226 232 239 240 242 238 238 253 255 261 268 266 251 261 261 289 288 272 266 269 254 254 258 256
351 327 303 285 288 282 279 285 281 275 272 252 250 248 242 238 233 225 222 223 211 217 215 225 226 228 232 223 229 234 239 238 237 242 243 244 266 247 258 266 242 252 258 272 257 296 310 289 267 249 243 244
328 285 318 324 295 282 288 264 252 261 266 270 258 253 248 244 237 227 229 225 219 216 220 223 225 230 228 226 228 239 240 237 242 235 239 235 244 265 253 262 252 238 218 252 269 276 299 298 345 316 330 319
271 254 268 285 273 289 256 271 301 304 295 284 277 268 254 253 239 229 229 225 223 224 223 220 224 228 222 229 223 229 239 236 240 237 237 235 238 239 263 251 262 235 230 230 226 281 223 248 360 309 288 360
277 307 325 320 327 334 331 329 325 323 299 282 280 277 262 246 235 233 231 227 225 225 228 223 225 222 225 225 225 225 235 237 236 237 234 231 233 229 237 257 255 255 234 237 224 211 274 303 279 231 281 341
294 283 279 298 305 304 297 290 295 287 271 283 281 267 260 260 239 236 235 231 228 226 229 228 224 224 225 225 225 224 231 238 241 237 234 229 230 237 232 242 258 257 244 235 238 232 232 213 198 238 271 38
283 286 277 263 259 260 262 265 264 244 251 247 255 254 265 261 254 233 231 235 227 228 229 229 225 223 225 228 228 229 231 234 234 236 237 234 231 233 232 228 244 248 238 256 246 239 236 238 240 207 239 243